Date,TemperatureHighF,TemperatureAvgF,TemperatureLowF,DewpointHighF,DewpointAvgF,DewpointLowF,HumidityHigh,HumidityAvg,HumidityLow,PressureMaxIn,PressureMinIn,WindSpeedMaxMPH,WindSpeedAvgMPH,GustSpeedMaxMPH,PrecipitationSumIn
2013-1-1,38,32,26,37,31,23,97,95,91,30.30,30.06,1,0,4,0.02
2013-1-2,37,28,23,27,23,21,91,83,61,30.32,30.23,2,0,5,0.00
2013-1-3,42,30,21,32,25,18,92,82,58,30.49,30.31,2,0,5,0.00
2013-1-4,49,33,22,31,26,20,93,75,41,30.51,30.37,2,0,6,0.01
2013-1-5,44,36,26,35,30,23,91,82,71,30.37,30.20,0,0,1,0.00
2013-1-6,46,33,24,32,25,20,95,75,41,30.41,30.27,0,0,1,0.00
2013-1-7,53,35,21,32,25,18,91,71,40,30.40,30.16,3,0,6,0.00
2013-1-8,58,42,27,47,36,24,96,81,55,30.23,30.07,3,0,11,0.00
2013-1-9,54,50,45,48,44,39,98,83,62,30.36,30.21,1,0,7,0.00
2013-1-10,52,50,48,44,42,40,85,76,63,30.22,30.11,1,0,3,0.00
2013-1-19,64,50,35,40,37,32,87,63,40,30.21,30.08,3,1,6,0.00
2013-1-21,38,30,24,20,18,17,74,63,46,30.38,30.33,0,0,0,0.00
2013-1-22,24,23,22,17,17,16,78,76,74,30.37,30.34,0,0,0,0.00
2013-1-29,68,56,47,64,54,46,97,94,80,29.58,29.43,2,0,6,0.11
2013-1-30,47,34,25,46,30,22,96,85,75,30.09,29.49,2,0,7,0.01
2013-1-31,47,30,20,32,23,12,94,77,55,30.49,30.06,2,0,5,0.00
2013-2-1,47,28,15,22,15,9,82,61,35,30.51,30.22,1,0,4,0.00
2013-2-2,54,37,25,34,28,20,89,72,45,30.30,30.21,1,0,4,0.00
2013-2-3,55,40,27,31,28,24,95,68,33,30.32,30.00,0,0,1,0.00
2013-2-4,61,48,35,48,39,30,90,73,49,30.00,29.83,1,0,1,0.00
2013-2-5,64,44,29,48,34,27,97,74,35,30.10,29.94,1,0,4,0.00
2013-2-6,66,47,31,45,37,28,95,70,44,30.14,29.96,0,0,0,0.00
2013-2-7,56,51,44,53,48,39,96,89,77,30.11,29.86,0,0,0,0.01
2013-2-8,54,42,35,39,34,31,87,73,45,30.32,30.11,0,0,1,0.00
2013-2-9,50,41,33,43,35,30,93,80,48,30.24,29.85,0,0,0,0.00
2013-2-10,61,53,42,53,40,28,96,66,33,30.05,29.65,7,1,14,0.00
2013-2-11,53,39,28,31,28,25,91,65,34,30.21,30.05,0,0,0,0.00
2013-2-12,46,37,28,37,30,24,94,79,54,30.18,29.94,0,0,0,0.00
2013-2-13,51,39,33,39,34,30,96,82,51,30.05,29.95,3,0,9,0.01
2013-2-14,33,32,31,30,29,29,93,92,90,30.00,29.98,0,0,0,0.00